| time (UTC) | temp C | wind direction | speed KPH | gust KPH | rain 1hr cm | rain 24hr cm | rain mn cm | humidity % | barometer mb |
| 20260906110613 | 21 | 90 | 3.2 | 3.2 | 0.00 | 0.00 | 0.00 | 48 | 1011.2 |
| 20260906105612 | 21 | 92 | 0.0 | 0.0 | 0.00 | 0.00 | 0.00 | 47 | 1011.2 |
| 20260906104611 | 21 | 96 | 0.0 | 0.0 | 0.00 | 0.00 | 0.00 | 46 | 1011.2 |
| 20260906103539 | 21 | 110 | 0.0 | 0.0 | 0.00 | 0.00 | 0.00 | 45 | 1010.8 |
| 20260906102538 | 21 | 110 | 0.0 | 0.0 | 0.00 | 0.00 | 0.00 | 45 | 1010.5 |
| 20260906101537 | 21 | 110 | 0.0 | 1.6 | 0.00 | 0.00 | 0.00 | 45 | 1010.5 |
| 20260906100535 | 21 | 103 | 0.0 | 1.6 | 0.00 | 0.00 | 0.00 | 45 | 1010.2 |
| 20260906095534 | 21 | 105 | 1.6 | 1.6 | 0.00 | 0.00 | 0.00 | 45 | 1010.2 |
| 20260906094534 | 20 | 104 | 0.0 | 1.6 | 0.00 | 0.00 | 0.00 | 46 | 1010.2 |
| 20260906093532 | 20 | 321 | 0.0 | 0.0 | 0.00 | 0.00 | 0.00 | 47 | 1010.2 |
| 20260906092532 | 20 | 321 | 0.0 | 0.0 | 0.00 | 0.00 | 0.00 | 46 | 1010.2 |
| 20260906091531 | 20 | 321 | 0.0 | 0.0 | 0.00 | 0.00 | 0.00 | 47 | 1010.2 |
| 20260906090530 | 20 | 321 | 0.0 | 0.0 | 0.00 | 0.00 | 0.00 | 47 | 1010.2 |
| 20260906085529 | 20 | 321 | 0.0 | 0.0 | 0.00 | 0.00 | 0.00 | 46 | 1009.8 |
| 20260906084527 | 20 | 321 | 0.0 | 0.0 | 0.00 | 0.00 | 0.00 | 49 | 1009.8 |
| 20260906083526 | 20 | 321 | 0.0 | 0.0 | 0.00 | 0.00 | 0.00 | 50 | 1009.8 |
| 20260906082423 | 20 | 321 | 0.0 | 0.0 | 0.00 | 0.00 | 0.00 | 50 | 1009.5 |
| 20260906081351 | 20 | 321 | 0.0 | 0.0 | 0.00 | 0.00 | 0.00 | 53 | 1009.5 |
| 20260906080350 | 20 | 321 | 0.0 | 0.0 | 0.00 | 0.00 | 0.00 | 55 | 1009.5 |
| 20260906075350 | 20 | 321 | 0.0 | 0.0 | 0.00 | 0.00 | 0.00 | 54 | 1009.8 |
| 20260906074349 | 20 | 321 | 0.0 | 0.0 | 0.00 | 0.00 | 0.00 | 55 | 1009.5 |
| 20260906073347 | 20 | 321 | 0.0 | 0.0 | 0.00 | 0.00 | 0.00 | 54 | 1009.8 |
| 20260906072315 | 20 | 321 | 0.0 | 0.0 | 0.00 | 0.00 | 0.00 | 55 | 1009.8 |
| 20260906071313 | 20 | 321 | 0.0 | 0.0 | 0.00 | 0.00 | 0.00 | 55 | 1009.8 |
| 20260906070312 | 20 | 321 | 0.0 | 0.0 | 0.00 | 0.00 | 0.00 | 55 | 1010.2 |
| 20260906065208 | 20 | 321 | 0.0 | 0.0 | 0.00 | 0.00 | 0.00 | 58 | 1010.2 |
| 20260906064207 | 20 | 321 | 0.0 | 0.0 | 0.00 | 0.00 | 0.00 | 58 | 1010.2 |
| 20260906063206 | 20 | 321 | 0.0 | 0.0 | 0.00 | 0.00 | 0.00 | 57 | 1010.2 |
| 20260906062205 | 20 | 321 | 0.0 | 0.0 | 0.00 | 0.00 | 0.00 | 63 | 1010.2 |
| 20260906061132 | 20 | 321 | 0.0 | 0.0 | 0.00 | 0.00 | 0.00 | 64 | 1010.2 |
| 20260906060131 | 20 | 321 | 0.0 | 0.0 | 0.00 | 0.00 | 0.00 | 66 | 1010.2 |
| 20260906055059 | 20 | 321 | 0.0 | 0.0 | 0.00 | 0.00 | 0.00 | 69 | 1009.8 |
| 20260906054026 | 20 | 321 | 0.0 | 0.0 | 0.00 | 0.00 | 0.00 | 72 | 1009.8 |
| 20260906053025 | 20 | 321 | 0.0 | 0.0 | 0.00 | 0.00 | 0.00 | 72 | 1010.2 |
| 20260906052024 | 20 | 321 | 0.0 | 0.0 | 0.00 | 0.00 | 0.00 | 71 | 1009.8 |
| 20260906051022 | 20 | 321 | 0.0 | 0.0 | 0.00 | 0.00 | 0.00 | 74 | 1009.8 |
| 20260906050021 | 21 | 321 | 0.0 | 0.0 | 0.00 | 0.00 | 0.00 | 77 | 1010.2 |
| 20260906045021 | 21 | 321 | 0.0 | 0.0 | 0.00 | 0.00 | 0.00 | 76 | 1010.2 |
| 20260906044019 | 20 | 321 | 0.0 | 0.0 | 0.00 | 0.00 | 0.00 | 81 | 1010.2 |
| 20260906043018 | 21 | 325 | 0.0 | 0.0 | 0.00 | 0.00 | 0.00 | 83 | 1010.2 |
| 20260906042017 | 21 | 44 | 0.0 | 0.0 | 0.00 | 0.00 | 0.00 | 84 | 1010.2 |
| 20260906041016 | 21 | 84 | 0.0 | 0.0 | 0.00 | 0.00 | 0.00 | 84 | 1010.2 |
| 20260906040015 | 21 | 83 | 0.0 | 0.0 | 0.00 | 0.00 | 0.00 | 85 | 1010.2 |
| 20260906035014 | 21 | 82 | 0.0 | 0.0 | 0.00 | 0.00 | 0.00 | 85 | 1010.2 |
| 20260906034014 | 21 | 82 | 0.0 | 0.0 | 0.00 | 0.00 | 0.00 | 85 | 1010.2 |
| 20260906033013 | 21 | 83 | 0.0 | 0.0 | 0.00 | 0.00 | 0.00 | 85 | 1010.2 |
| 20260906032012 | 21 | 83 | 0.0 | 0.0 | 0.00 | 0.00 | 0.00 | 85 | 1010.2 |
| 20260906031011 | 21 | 81 | 0.0 | 0.0 | 0.00 | 0.00 | 0.00 | 85 | 1010.2 |
| 20260906030010 | 21 | 285 | 0.0 | 0.0 | 0.00 | 0.00 | 0.00 | 85 | 1010.2 |
| 20260906024939 | 22 | 70 | 0.0 | 0.0 | 0.00 | 0.00 | 0.00 | 85 | 1010.2 |
| 20260906023938 | 22 | 50 | 0.0 | 0.0 | 0.00 | 0.00 | 0.00 | 85 | 1010.2 |
| 20260906022937 | 22 | 288 | 0.0 | 1.6 | 0.00 | 0.00 | 0.00 | 84 | 1009.8 |
| 20260906021936 | 22 | 288 | 0.0 | 1.6 | 0.00 | 0.00 | 0.00 | 84 | 1009.8 |
| 20260906020933 | 22 | 289 | 0.0 | 0.0 | 0.00 | 0.00 | 0.00 | 84 | 1009.8 |
| 20260906015901 | 23 | 289 | 0.0 | 0.0 | 0.00 | 0.00 | 0.00 | 83 | 1009.5 |
| 20260906014900 | 23 | 289 | 0.0 | 0.0 | 0.00 | 0.00 | 0.00 | 81 | 1009.8 |
| 20260906013900 | 23 | 288 | 0.0 | 0.0 | 0.00 | 0.00 | 0.00 | 80 | 1009.8 |
| 20260906012859 | 23 | 288 | 0.0 | 0.0 | 0.00 | 0.00 | 0.00 | 79 | 1009.5 |
| 20260906011858 | 23 | 288 | 0.0 | 0.0 | 0.00 | 0.00 | 0.00 | 78 | 1009.5 |
| 20260906010857 | 24 | 288 | 0.0 | 0.0 | 0.00 | 0.00 | 0.00 | 78 | 1009.1 |
| 20260906005855 | 24 | 290 | 0.0 | 0.0 | 0.00 | 0.00 | 0.00 | 78 | 1009.1 |
| 20260906004853 | 25 | 276 | 0.0 | 0.0 | 0.00 | 0.00 | 0.00 | 75 | 1008.8 |
| 20260906003852 | 25 | 248 | 0.0 | 0.0 | 0.00 | 0.00 | 0.00 | 75 | 1008.8 |
| 20260906002851 | 25 | 243 | 0.0 | 0.0 | 0.00 | 0.00 | 0.00 | 78 | 1008.8 |
| 20260906001849 | 25 | 242 | 0.0 | 0.0 | 0.00 | 0.00 | 0.00 | 77 | 1008.5 |
| 20260906000849 | 25 | 242 | 0.0 | 0.0 | 0.00 | 0.00 | 0.00 | 76 | 1008.5 |
| 20260905235846 | 26 | 242 | 0.0 | 0.0 | 0.00 | 0.00 | 0.00 | 74 | 1008.5 |
| 20260905234846 | 26 | 242 | 0.0 | 0.0 | 0.00 | 0.00 | 0.00 | 73 | 1008.5 |
| 20260905233845 | 27 | 300 | 0.0 | 3.2 | 0.00 | 0.00 | 0.00 | 70 | 1008.5 |
| 20260905232844 | 28 | 300 | 0.0 | 3.2 | 0.00 | 0.00 | 0.00 | 68 | 1008.1 |
| 20260905231842 | 28 | 301 | 0.0 | 4.8 | 0.00 | 0.00 | 0.00 | 65 | 1008.1 |
| 20260905230810 | 29 | 299 | 1.6 | 9.7 | 0.00 | 0.00 | 0.00 | 64 | 1008.1 |
| 20260905225809 | 29 | 276 | 1.6 | 9.7 | 0.00 | 0.00 | 0.00 | 63 | 1008.1 |
| 20260905224809 | 30 | 269 | 3.2 | 9.7 | 0.00 | 0.00 | 0.00 | 61 | 1008.1 |
| 20260905223808 | 30 | 288 | 3.2 | 6.4 | 0.00 | 0.00 | 0.00 | 60 | 1008.1 |
| 20260905222806 | 31 | 270 | 3.2 | 8.0 | 0.00 | 0.00 | 0.00 | 58 | 1008.5 |
| 20260905221805 | 31 | 272 | 3.2 | 8.0 | 0.00 | 0.00 | 0.00 | 58 | 1008.5 |
| 20260905220804 | 30 | 178 | 1.6 | 8.0 | 0.00 | 0.00 | 0.00 | 60 | 1008.1 |
| 20260905215803 | 30 | 287 | 3.2 | 8.0 | 0.00 | 0.00 | 0.00 | 60 | 1008.5 |
| 20260905214802 | 30 | 288 | 3.2 | 11.3 | 0.00 | 0.00 | 0.00 | 58 | 1008.5 |
| 20260905213802 | 30 | 284 | 4.8 | 14.5 | 0.00 | 0.00 | 0.00 | 59 | 1008.5 |
| 20260905212801 | 29 | 300 | 6.4 | 14.5 | 0.00 | 0.00 | 0.00 | 59 | 1008.5 |
| 20260905211759 | 29 | 280 | 4.8 | 11.3 | 0.00 | 0.00 | 0.00 | 61 | 1008.5 |
| 20260905210759 | 30 | 265 | 4.8 | 11.3 | 0.00 | 0.00 | 0.00 | 59 | 1008.5 |
| 20260905205758 | 30 | 304 | 3.2 | 9.7 | 0.00 | 0.00 | 0.00 | 58 | 1008.1 |
| 20260905204757 | 31 | 302 | 4.8 | 9.7 | 0.00 | 0.00 | 0.00 | 56 | 1008.1 |
| 20260905203756 | 31 | 247 | 4.8 | 9.7 | 0.00 | 0.00 | 0.00 | 55 | 1008.5 |
| 20260905202723 | 31 | 261 | 3.2 | 8.0 | 0.00 | 0.00 | 0.00 | 55 | 1008.5 |
| 20260905201651 | 31 | 133 | 4.8 | 8.0 | 0.00 | 0.00 | 0.00 | 55 | 1008.1 |
| 20260905200651 | 31 | 229 | 4.8 | 11.3 | 0.00 | 0.00 | 0.00 | 57 | 1008.1 |
| 20260905195650 | 31 | 209 | 6.4 | 11.3 | 0.00 | 0.00 | 0.00 | 57 | 1008.1 |
| 20260905194649 | 31 | 111 | 1.6 | 8.0 | 0.00 | 0.00 | 0.00 | 57 | 1008.5 |
| 20260905193617 | 30 | 294 | 3.2 | 11.3 | 0.00 | 0.00 | 0.00 | 61 | 1008.5 |
| 20260905192616 | 29 | 257 | 4.8 | 11.3 | 0.00 | 0.00 | 0.00 | 63 | 1008.1 |
| 20260905191615 | 29 | 298 | 4.8 | 9.7 | 0.00 | 0.00 | 0.00 | 65 | 1008.1 |
| 20260905190614 | 28 | 96 | 0.0 | 1.6 | 0.00 | 0.00 | 0.00 | 63 | 1007.5 |
| 20260905185613 | 28 | 102 | 0.0 | 3.2 | 0.00 | 0.00 | 0.00 | 67 | 1007.5 |
| 20260905184612 | 28 | 295 | 0.0 | 8.0 | 0.00 | 0.00 | 0.00 | 64 | 1007.5 |
| 20260905183611 | 28 | 228 | 1.6 | 8.0 | 0.00 | 0.00 | 0.00 | 65 | 1008.1 |
| 20260905182609 | 28 | 308 | 4.8 | 16.1 | 0.00 | 0.00 | 0.00 | 64 | 1008.5 |
| 20260905181608 | 29 | 269 | 4.8 | 19.3 | 0.00 | 0.00 | 0.00 | 63 | 1009.1 |
| 20260905180607 | 30 | 300 | 4.8 | 19.3 | 0.00 | 0.00 | 0.00 | 61 | 1009.5 |
| 20260905175606 | 30 | 299 | 4.8 | 19.3 | 0.00 | 0.00 | 0.00 | 62 | 1009.1 |
| 20260905174606 | 31 | 289 | 9.7 | 19.3 | 0.00 | 0.00 | 0.00 | 61 | 1009.1 |
| 20260905173604 | 31 | 312 | 6.4 | 17.7 | 0.00 | 0.00 | 0.00 | 62 | 1009.1 |
| 20260905172602 | 32 | 319 | 6.4 | 20.9 | 0.00 | 0.00 | 0.00 | 59 | 1009.5 |
| 20260905171601 | 33 | 356 | 1.6 | 20.9 | 0.00 | 0.00 | 0.00 | 56 | 1009.5 |
| 20260905170600 | 33 | 308 | 6.4 | 14.5 | 0.00 | 0.00 | 0.00 | 55 | 1009.5 |
| 20260905165527 | 33 | 304 | 4.8 | 14.5 | 0.00 | 0.00 | 0.00 | 55 | 881.9 |
| 20260905164526 | 34 | 312 | 4.8 | 11.3 | 0.00 | 0.00 | 0.00 | 53 | 881.8 |
| 20260905163525 | 35 | 66 | 0.0 | 11.3 | 0.00 | 0.00 | 0.00 | 55 | 1009.8 |
| 20260905162525 | 34 | 250 | 4.8 | 16.1 | 0.00 | 0.00 | 0.00 | 57 | 1009.5 |
| 20260905161453 | 34 | 306 | 6.4 | 16.1 | 0.00 | 0.00 | 0.00 | 54 | 1009.8 |
| 20260905160451 | 34 | 294 | 4.8 | 9.7 | 0.00 | 0.00 | 0.00 | 55 | 1010.2 |
| 20260905155451 | 33 | 317 | 3.2 | 12.9 | 0.00 | 0.00 | 0.00 | 57 | 1010.2 |
| 20260905154450 | 33 | 44 | 0.0 | 12.9 | 0.00 | 0.00 | 0.00 | 57 | 1010.2 |
| 20260905153449 | 33 | 291 | 4.8 | 9.7 | 0.00 | 0.00 | 0.00 | 55 | 1010.2 |
| 20260905152448 | 33 | 74 | 0.0 | 8.0 | 0.00 | 0.00 | 0.00 | 56 | 1010.2 |
| 20260905151416 | 33 | 290 | 3.2 | 8.0 | 0.00 | 0.00 | 0.00 | 56 | 1010.2 |
| 20260905150415 | 33 | 89 | 3.2 | 9.7 | 0.00 | 0.00 | 0.00 | 57 | 1010.5 |
| 20260905145343 | 33 | 276 | 6.4 | 9.7 | 0.00 | 0.00 | 0.00 | 59 | 1010.5 |
| 20260905144342 | 32 | 270 | 1.6 | 8.0 | 0.00 | 0.00 | 0.00 | 61 | 1010.5 |
| 20260905143342 | 31 | 186 | 4.8 | 11.3 | 0.00 | 0.00 | 0.00 | 63 | 1010.5 |
| 20260905142341 | 31 | 252 | 3.2 | 11.3 | 0.00 | 0.00 | 0.00 | 66 | 1010.5 |
| 20260905141338 | 31 | 280 | 4.8 | 8.0 | 0.00 | 0.00 | 0.00 | 64 | 1010.5 |
| 20260905140336 | 31 | 226 | 4.8 | 8.0 | 0.00 | 0.00 | 0.00 | 65 | 1010.5 |
| 20260905135306 | 30 | 207 | 3.2 | 8.0 | 0.00 | 0.00 | 0.00 | 68 | 1010.2 |
| 20260905134301 | 30 | 294 | 1.6 | 8.0 | 0.00 | 0.00 | 0.00 | 68 | 1010.5 |
| 20260905133300 | 29 | 262 | 3.2 | 8.0 | 0.00 | 0.00 | 0.00 | 70 | 1010.5 |
| 20260905132259 | 28 | 277 | 3.2 | 8.0 | 0.00 | 0.00 | 0.00 | 72 | 1010.5 |
| 20260905131257 | 27 | 290 | 0.0 | 6.4 | 0.00 | 0.00 | 0.00 | 75 | 1010.5 |
| 20260905130257 | 27 | 283 | 3.2 | 6.4 | 0.00 | 0.00 | 0.00 | 75 | 1010.5 |
| 20260905125256 | 26 | 261 | 3.2 | 6.4 | 0.00 | 0.00 | 0.00 | 77 | 1010.5 |
| 20260905124255 | 26 | 264 | 1.6 | 6.4 | 0.00 | 0.00 | 0.00 | 81 | 1010.5 |
| 20260905123254 | 25 | 245 | 0.0 | 6.4 | 0.00 | 0.00 | 0.00 | 84 | 1010.5 |
| 20260905122254 | 23 | 266 | 0.0 | 8.0 | 0.00 | 0.00 | 0.00 | 85 | 1010.5 |
| 20260905121253 | 22 | 270 | 3.2 | 8.0 | 0.00 | 0.00 | 0.00 | 84 | 1010.5 |
| 20260905120252 | 22 | 293 | 1.6 | 4.8 | 0.00 | 0.00 | 0.00 | 72 | 1010.5 |
| 20260905115220 | 21 | 215 | 3.2 | 4.8 | 0.00 | 0.00 | 0.00 | 62 | 1010.5 |
| 20260905114219 | 21 | 277 | 0.0 | 1.6 | 0.00 | 0.00 | 0.00 | 58 | 1010.5 |
| 20260905113217 | 20 | 285 | 0.0 | 1.6 | 0.00 | 0.00 | 0.00 | 55 | 1010.5 |
| 20260905112216 | 20 | 225 | 0.0 | 1.6 | 0.00 | 0.00 | 0.00 | 57 | 1010.5 |